TITAN 3C TRANSTAGE R/B, 1863

Orbit data source: Space-Track

TITAN 3C TRANSTAGE R/B, 1863 is space debris in HEO originally from a launch on Tue, 21 Dec 1965 UTC launched from the Air Force Eastern Test Range (AFETR). Debris objects in space refer to the collection of defunct objects orbiting the Earth. Examples of debris include non-operational satellites, rocket bodies, and fragments generated from explosions, collisions, or faulty payload assembly.

Loading next visibility...
Identifier
1863, 1965-108A
Orbit
HEO
Country
Flag of USUS
Related business
Manufacturer
Martin Marietta
Mission
Spacecraft
Bus & Motor
TRANSTAGE, Unknown motor
Mass
~2,050 kg wet, 1,950 kg dry
Launch date (UTC)
1965-12-21 (60 years ago)
Launch vehicle
Unknown
Launch site
Air Force Eastern Test Range (AFETR)
Object type
Payload
Rocket body
Debris
Shape & HBR
Cyl + 2 Nozzle, 2.3 m
Radar Cross Section
14.974 m², Large (>1 m²)

Expand to show TLE details & history
Last TLE update: 1 day ago

TLE from 1 day ago
0 TITAN 3C TRANSTAGE R/B
1 01863U 65108A   25259.64370882  .00008130  00000-0  27983-2 0  9992
2 01863  26.7794  61.5858 6029346 139.6946 285.9520  3.96878076357433
Epoch: 2025-09-16T15:26Z
TLE epoch observation values (Epoch: 2025-09-16T15:26:56.442Z)
Latitude
-0.00015°
Longitude
-165.96362°
Altitude
13,450.495 km
Speed
4.068 km/s
True Right ascension
04h 06m 24s
True Declination
0° 00' 01"
Sunlit
Object was in daylight at epoch
Visualization orbit readout
Latitude
Unknown
Longitude
Unknown
Altitude
Unknown
Speed
Unknown
Apparent Right ascension
Unknown
Apparent Declination
Unknown
Sunlit
N/A
Visualization observer readout
Local Sidereal Time
12:45:03
Azimuth
Unknown
Elevation
Unknown
Doppler factor
Unknown
Orbital elements
Apogee altitude
20,638.965 km
Perigee altitude
314.311 km
Semi-major axis
16,854.775 km
Eccentricity
0.60293
Inclination
26.7794°
RAAN
61.5858°
Arg. of periapsis
139.6946°
True anomaly
220.38734°
Mean anomaly
285.952°
Eccentric anomaly
252.9285°
Mean motion
0.99188 °/min
Orbital period
362.95 mins
BSTAR
0.0027983
Loading maneuver chart data...
Computing Atmospheric mass density...

Documentation

Showing up to 5 results
|